Regional Weather Roundup
Issued by NWS

Home | Current Version | Previous Version | Graphics & Text | Print | Product List | Glossary On
Versions: 1 2 3 4 5 6 7 8 9 10 11 12 13 14 15 16 17 18 19 20 21 22 23 24 25 26 27
000
ASUS45 KPSR 161110
RWRAZ

ARIZONA HOURLY REGIONAL WEATHER ROUNDUP
NATIONAL WEATHER SERVICE PHOENIX AZ
400 AM MST WED AUG 16 2017

NOTE: FAIR INDICATES FEW OR NO CLOUDS BELOW 12,000 FEET WITH NO
SIGNIFICANT WEATHER AND/OR OBSTRUCTIONS TO VISIBILITY.

AZZ001>003-036-161200-
NORTHWEST ARIZONA

CITY           SKY/WX    TMP DP  RH WIND       PRES   REMARKS
BULLHEAD CITY  CLEAR     82  39  21 S3        29.76R
KINGMAN        CLEAR     67  36  31 SE15      29.95R
$$

AZZ004>008-015-016-018-161200-
NORTH CENTRAL ARIZONA

CITY           SKY/WX    TMP DP  RH WIND       PRES   REMARKS
GRAND CANYON   CLEAR     38  28  67 CALM      30.19R
WILLIAMS       CLEAR     45  32  61 S12       30.18S
PRESCOTT       CLEAR     54  38  54 CALM      30.08R
FLAGSTAFF      CLEAR     40  34  79 CALM      30.21R
PAYSON           N/A     57  37  47 CALM      30.11S
PAGE           CLEAR     66  28  24 NW3       30.00R
$$

AZZ009>014-017-161200-
NORTHEAST ARIZONA

CITY           SKY/WX    TMP DP  RH WIND       PRES   REMARKS
WINSLOW        CLEAR     57  42  57 CALM      30.09R
SAINT JOHNS    CLEAR     57  47  69 S6        30.14R
WINDOW ROCK    PTCLDY    46  33  60 CALM      30.20R
SHOW LOW       CLEAR     54  41  62 S7        30.20R
$$

AZZ540-542>544-546-548-161200-
GREATER PHOENIX AREA

CITY           SKY/WX    TMP DP  RH WIND       PRES   REMARKS
PHOENIX        CLEAR     81  44  27 E9        29.82R
BUCKEYE        CLEAR     73  37  27 NE3       29.82S
LUKE AFB       CLEAR     78  49  36 SW3       29.81R
DEER VALLEY    CLEAR     75  35  23 E8        29.85R
SCOTTSDALE     CLEAR     79  36  21 CALM      29.87R
MESA-GATEWAY   CLEAR     73  52  46 E8        29.87R
$$

AZZ539-553-161200-
SOUTHWEST MARICOPA COUNTY AND PINAL COUNTY

CITY           SKY/WX    TMP DP  RH WIND       PRES   REMARKS
CASA GRANDE    CLEAR     76  54  46 E3        29.87R
GILA BEND      FAIR      75  42  30 SE7       29.80R
$$

AZZ503-504-507>509-161200-
SOUTHEAST ARIZONA

CITY           SKY/WX    TMP DP  RH WIND       PRES   REMARKS
TUCSON         CLEAR     73  46  38 E7        29.98S
DAVIS-MONTHAN  CLEAR     69  50  50 E3        29.97R
NOGALES        CLEAR     59  50  72 SE5       30.06S
SIERRA VISTA   CLEAR     67  42  40 CALM      30.11S
DOUGLAS        CLEAR     63  60  90 SE7       30.08R
SAFFORD        CLEAR     74  44  34 NW6       29.96S
$$

AZZ532-161200-
SOUTHWEST ARIZONA

CITY           SKY/WX    TMP DP  RH WIND       PRES   REMARKS
YUMA           NOT AVBL
$$

CAZ041-043-047-048-061-525>527-560>570-161200-
SOUTHERN CALIFORNIA

CITY           SKY/WX    TMP DP  RH WIND       PRES   REMARKS
DOWNTOWN L.A.  CLOUDY    68  59  73 CALM      29.93R
L.A. AIRPORT   CLOUDY    67  60  78 W5        29.93S
SAN DIEGO      MOCLDY    68  57  68 CALM      29.96R
BURBANK        CLOUDY    66  57  72 S3        29.93S
ONTARIO        CLOUDY    64  58  80 S5        29.94S
RIVERSIDE      CLOUDY    64  59  83 CALM      29.95R
PALM SPRINGS   CLEAR     74  54  49 SE3       29.77R
EL CENTRO NAS  CLEAR     80  30  16 W8        29.77R
IMPERIAL       CLEAR     77  40  26 W12       29.74R
BLYTHE         CLEAR     75  37  25 S8        29.75R
NEEDLES        CLEAR     83  35  18 W6        29.77R
$$

NVZ020-UTZ003-161200-
SOUTHERN NEVADA-UTAH

CITY           SKY/WX    TMP DP  RH WIND       PRES   REMARKS
LAS VEGAS      CLEAR     78  40  25 CALM      29.83R
SALT LAKE CITY CLEAR     60  39  45 SE7       30.01R
$$

NMZ009-TXZ055-161200-
NEW MEXICO-WEST TEXAS

CITY           SKY/WX    TMP DP  RH WIND       PRES   REMARKS
ALBUQUERQUE    CLEAR     60  41  49 SE6       30.11R
EL PASO        PTCLDY    79  54  41 W18G28    29.99F
$$


........................KEY........................
SKY/WX - SKY CONDITION/WEATHER
TMP    - TEMPERATURE IN FAHRENHEIT
DP     - DEW POINT IN FAHRENHEIT
RH     - RELATIVE HUMIDITY IN PERCENT
WIND   - DIRECTION AND SPEED IN MILES PER HOUR (MPH)
VRB    - VARIABLE WIND DIRECTION
PRES   - MEAN SEA LEVEL PRESSURE IN INCHES OF MERCURY
         F - FALLING PRESSURE   R - RISING PRESSURE
         S - STEADY PRESSURE
VSB    - VISIBILITY IN MILES
HX     - HEAT INDEX IN FAHRENHEIT
WCI    - WIND CHILL INDEX IN FAHRENHEIT
TC     - TEMPERATURE IN CELSIUS WHICH IS ALSO KNOWN AS
         TEMPERATURE IN CENTIGRADE
AFB    - AIR FORCE BASE
         LUKE AFB IS LUKE AIR FORCE BASE
         DAVIS-MONTHAN IS DAVIS-MONTHAN AIR FORCE BASE
NAS    - NAVAL AIR STATION
         EL CENTRO NAS IS EL CENTRO NAVAL AIR STATION
N/A    - NOT AVAILABLE





USA.gov is the U.S. government's official web portal to all federal, state and local government web resources and services.